EW5412 Weather Reports


time (UTC)temp
C
wind
direction
speed
KPH
gust
KPH
rain 1hr
cm
rain 24hr
cm
rain mn
cm
humidity
%
barometer
mb
20260507110034 2 285 0.0 1.6 0.00 0.00 0.00 80 1015.1
20260507104528 2 285 0.0 3.2 0.00 0.00 0.00 79 1015.0
20260507103027 2 285 0.0 3.2 0.00 0.00 0.00 79 1015.0
20260507101526 3 285 0.0 0.0 0.00 0.00 0.00 77 1014.8
20260507100033 3 285 0.0 1.6 0.00 0.00 0.00 76 1014.8
20260507094522 3 285 0.0 0.0 0.00 0.00 0.00 76 1014.9
20260507093027 3 356 0.0 0.0 0.00 0.00 0.00 76 1014.8
20260507091522 3 356 0.0 0.0 0.00 0.00 0.00 75 1014.7
20260507090019 3 356 0.0 3.2 0.00 0.00 0.00 74 1014.8
20260507084539 3 6 0.0 0.0 0.00 0.00 0.00 72 1014.9
20260507083023 3 356 0.0 3.2 0.00 0.00 0.00 72 1014.8
20260507081517 4 342 0.0 4.8 0.00 0.00 0.00 71 1014.8
20260507080017 4 15 0.0 6.4 0.00 0.00 0.00 70 1014.7
20260507074516 5 340 1.6 8.0 0.00 0.00 0.00 70 1014.7
20260507073020 4 4 0.0 8.0 0.00 0.00 0.00 72 1014.8
20260507071517 4 344 3.2 6.4 0.00 0.00 0.00 74 1014.8
20260507070019 3 4 4.8 8.0 0.00 0.00 0.00 77 1014.7
20260507064512 3 30 0.0 0.0 0.00 0.00 0.00 78 1014.7
20260507063013 3 30 0.0 1.6 0.00 0.00 0.00 79 1014.8
20260507061507 3 12 0.0 0.0 0.00 0.00 0.00 77 1014.8
20260507060007 4 11 0.0 0.0 0.00 0.00 0.00 76 1014.9
20260507054508 4 12 0.0 0.0 0.00 0.00 0.00 76 1014.9
20260507053003 3 15 0.0 1.6 0.00 0.00 0.00 78 1014.9
20260507051607 4 319 0.0 0.0 0.00 0.00 0.00 74 1014.9
20260507050108 5 319 0.0 0.0 0.00 0.00 0.00 72 1014.8
20260507044555 5 319 0.0 0.0 0.00 0.00 0.00 68 1014.9
20260507043048 6 319 0.0 0.0 0.00 0.00 0.00 68 1014.6
20260507041546 6 4 0.0 1.6 0.00 0.00 0.00 68 1014.6
20260507040045 6 32 0.0 0.0 0.00 0.00 0.00 65 1014.5
20260507034542 7 336 0.0 0.0 0.00 0.00 0.00 62 1014.6
20260507033045 7 335 0.0 3.2 0.00 0.00 0.00 62 1014.5
20260507031538 7 349 0.0 0.0 0.00 0.00 0.00 61 1014.4
20260507030039 8 332 1.6 6.4 0.00 0.00 0.00 59 1014.4
20260507024543 8 291 0.0 8.0 0.00 0.00 0.00 59 1014.3
20260507023038 8 345 1.6 6.4 0.00 0.00 0.00 59 1014.1
20260507021547 9 336 1.6 6.4 0.00 0.00 0.00 58 1014.1
20260507020034 9 334 1.6 3.2 0.00 0.00 0.00 58 1014.0
20260507014533 10 335 0.0 6.4 0.00 0.00 0.00 56 1013.9
20260507013036 10 304 3.2 6.4 0.00 0.00 0.00 54 1013.8
20260507011536 10 342 3.2 6.4 0.00 0.00 0.00 53 1013.6
20260507010040 11 338 6.4 14.5 0.00 0.00 0.00 51 1013.6
20260507004531 11 326 6.4 14.5 0.00 0.00 0.00 51 1013.4
20260507003031 11 341 6.4 17.7 0.00 0.00 0.00 50 1013.2
20260507001533 11 15 8.0 22.5 0.00 0.00 0.00 49 1013.0
20260507000033 11 328 4.8 11.3 0.00 0.00 0.00 50 1012.9
20260506234529 12 307 6.4 14.5 0.00 0.10 0.00 48 1013.0
20260506233029 12 338 6.4 14.5 0.00 0.10 0.00 47 1012.9
20260506231529 12 339 6.4 14.5 0.00 0.10 0.00 46 1013.1
20260506230029 12 20 6.4 14.5 0.00 0.10 0.00 48 1013.1
20260506224527 12 341 9.7 20.9 0.00 0.10 0.00 45 1013.1
20260506223026 12 325 8.0 14.5 0.00 0.10 0.00 45 1013.0
20260506221525 12 338 4.8 12.9 0.00 0.10 0.00 43 1013.0
20260506220031 12 22 4.8 11.3 0.00 0.10 0.00 44 1013.0
20260506214524 12 25 9.7 14.5 0.00 0.20 0.00 44 1012.9
20260506213029 13 5 11.3 19.3 0.00 0.20 0.00 44 1012.8
20260506211527 13 57 6.4 14.5 0.00 0.20 0.00 45 1012.9
20260506210030 13 345 9.7 19.3 0.00 0.20 0.00 44 1013.0
20260506204528 12 8 6.4 16.1 0.00 0.30 0.00 45 1013.2
20260506203027 12 69 6.4 16.1 0.00 0.30 0.00 44 1013.2
20260506201523 12 49 8.0 19.3 0.00 0.30 0.00 42 1013.2
20260506200021 13 316 11.3 16.1 0.00 0.30 0.00 42 1013.2
20260506194518 13 20 11.3 24.1 0.00 0.30 0.00 44 1013.3
20260506193018 13 333 11.3 22.5 0.00 0.30 0.00 42 1013.4
20260506191514 12 322 4.8 11.3 0.00 0.30 0.00 44 1013.4
20260506190012 12 349 8.0 19.3 0.00 0.30 0.00 44 1013.5
20260506184512 12 342 12.9 19.3 0.00 0.30 0.00 42 1013.6
20260506183010 12 53 1.6 19.3 0.00 0.30 0.00 44 1013.8
20260506181508 11 320 8.0 19.3 0.00 0.30 0.00 43 1013.8
20260506180008 11 37 3.2 16.1 0.00 0.30 0.00 45 1013.9
20260506174507 12 323 1.6 8.0 0.00 0.30 0.00 45 1013.9
20260506173006 11 342 8.0 12.9 0.00 0.30 0.00 43 1013.7
20260506171510 11 22 9.7 16.1 0.00 0.30 0.00 46 1013.6
20260506170002 12 19 1.6 9.7 0.00 0.36 0.00 44 1013.7
20260506164501 12 46 6.4 12.9 0.00 0.36 0.00 43 1013.8
20260506163104 11 57 4.8 11.3 0.00 0.36 0.00 42 1013.9
20260506161605 12 96 0.0 9.7 0.00 0.36 0.00 47 1013.9
20260506160056 11 79 6.4 14.5 0.00 0.36 0.00 46 1013.9
20260506154550 11 54 4.8 9.7 0.00 0.36 0.00 48 1013.9
20260506153051 10 87 3.2 11.3 0.00 0.36 0.00 49 1014.0
20260506151602 10 101 6.4 11.3 0.00 0.36 0.00 50 1014.0
20260506150047 10 89 4.8 12.9 0.00 0.36 0.00 49 1013.9
20260506144545 10 34 6.4 19.3 0.00 0.36 0.00 50 1013.9
20260506143048 10 92 4.8 12.9 0.00 0.36 0.00 52 1013.5
20260506141537 10 43 3.2 9.7 0.00 0.36 0.00 52 1013.5
20260506140037 9 101 8.0 12.9 0.00 0.36 0.00 50 1013.2
20260506134532 9 124 6.4 14.5 0.00 0.36 0.00 51 1013.3
20260506133030 8 101 4.8 9.7 0.00 0.36 0.00 58 1013.2
20260506131527 8 101 4.8 9.7 0.00 0.36 0.00 60 1012.9
20260506130020 7 91 8.0 12.9 0.00 0.36 0.00 61 1012.6
20260506124516 7 77 4.8 11.3 0.00 0.36 0.00 69 1012.6
20260506123016 6 83 4.8 11.3 0.00 0.36 0.00 76 1012.4
20260506121509 5 97 3.2 11.3 0.00 0.36 0.00 89 1012.4
20260506120008 4 105 0.0 8.0 0.00 0.36 0.00 93 1012.4
20260506114508 3 98 0.0 0.0 0.00 0.36 0.00 93 1012.2
20260506113007 3 98 0.0 0.0 0.00 0.36 0.00 93 1011.9
20260506111501 3 99 0.0 0.0 0.00 0.36 0.00 92 1011.5